Regional Weather Roundup
Issued by NWS

Home | Current Version | Previous Version | Graphics & Text | Print | Product List | Glossary Off
Versions: 1 2 3 4 5 6 7 8 9 10 11 12 13 14 15 16 17 18 19 20 21 22 23 24 25 26 27 28 29 30 31 32 33 34 35 36 37 38 39 40 41 42 43 44 45 46 47 48 49 50

178
ASUS43 KMPX 250510
RWRMN
WEATHER ROUNDUP FOR MINNESOTA
NATIONAL WEATHER SERVICE TWIN CITIES/CHANHASSEN MN
1200 AM CDT SUN SEP 25 2016


NOTE: "FAIR" INDICATES FEW OR NO CLOUDS BELOW 12,000 FEET WITH NO
SIGNIFICANT WEATHER AND/OR OBSTRUCTIONS TO VISIBILITY. N/A MEANS
CURRENT SKY AND/OR WEATHER CONDITIONS ARE NOT AVAILABLE.

MNZ060>063-068>070-250600-
   Twin Cities Metro

CITY           SKY/WX    TMP DP  RH WIND       PRES   REMARKS
TWIN CITIES    CLOUDY    68  63  84 SE13      29.98R
ST PAUL        CLOUDY    68  63  84 SE13G21   30.00R
CRYSTAL        CLOUDY    68  62  81 SE13      29.97R
BLAINE         MOCLDY    70  66  88 SE9G20    29.99R
LAKEVILLE      CLOUDY    66  66 100 SE8       29.99S
EDEN PRAIRIE   LGT RAIN  69  64  84 SE13      29.96R
LAKEVILLE      CLOUDY    66  66 100 SE8       29.99S
SOUTH ST PAUL  CLOUDY    68  64  88 SE8       29.99R
LAKE ELMO      CLOUDY    66  63  88 SE7       30.01S
$$
MNZ001>005-007-008-013>017-022>024-027-028-250600-
   Northwest Minnesota

CITY           SKY/WX    TMP DP  RH WIND       PRES   REMARKS
BEMIDJI        CLOUDY    65  62  91 SE13      29.87F
HALLOCK        CLOUDY    68  64  88 SE16G22   29.73F
ROSEAU         CLOUDY    66  61  82 SE14G21   29.80F
WARROAD        CLOUDY    64  61  88 SE15G22   29.83F
THIEF RVR FALL CLOUDY    66  63  90 SE15      29.80F
CROOKSTON      CLOUDY    66  66 100 S14G22    29.77S
FOSSTON        CLOUDY    64  63  94 S14G21    29.83R
DETROIT LAKES  CLOUDY    66  63  88 S13       29.86F
MOORHEAD       CLOUDY    66  64  94 S13       29.80F
PARK RAPIDS    CLOUDY    67  63  87 S15       29.88F
MAHNOMEN       CLOUDY    66  64  91 S12G17    29.82F
$$
MNZ006-009>011-018-025>026-250600-
   North Central Minnesota

CITY           SKY/WX    TMP DP  RH WIND       PRES   REMARKS
BAUDETTE       CLOUDY    63  61  93 SE12      29.87S
FLAG ISLAND    CLOUDY    63  61  94 SE7       29.83F
INTL FALLS     CLOUDY    62  59  90 SE12      29.93F
WASKISH        CLOUDY    64  61  88 SE12G17   29.88S
BIG FORK       CLOUDY    63  61  94 SE7G17    29.94S
GRAND RAPIDS   CLOUDY    63  61  93 SE16G23   29.96F
COOK           CLOUDY    63  57  82 SE10G18   29.98S
WALKER         CLOUDY    64  62  91 SE10G17   29.89S
$$
MNZ012-019>021-037-250600-
   Northeast Minnesota

CITY           SKY/WX    TMP DP  RH WIND       PRES   REMARKS
DULUTH         CLOUDY    61  59  93 SE13      30.01S
ELY            CLOUDY    61  54  77 SE8       30.01S
HIBBING        CLOUDY    61  58  90 SE15G22   29.99S
EVELETH        CLOUDY    63  58  83 SE7       30.01R
DULUTH HARBOR  CLOUDY    61  57  88 E5        30.02F
TWO HARBORS    CLOUDY    64  59  82 E6        30.02S
SILVER BAY     CLOUDY    61  57  88 NE6       30.03S
GRAND MARAIS     N/A     62  57  83 NE8       30.06F
G MARAIS ARPRT CLOUDY    57  52  82 E6        30.09F
$$
MNZ029>031-032-039>041-046>048-054>057-064-250600-
   West Central Minnesota

CITY           SKY/WX    TMP DP  RH WIND       PRES   REMARKS
FERGUS FALLS   MOCLDY    66  66 100 S13       29.85F
MORRIS         CLOUDY    68  66  94 SE12      29.86F
ALEXANDRIA     CLOUDY    67  67 100 SE18G25   29.90F
ELBOW LAKE     CLOUDY    67  66  98 SE15      29.86F
WADENA         LGT RAIN  66  64  94 S15       29.87F
GLENWOOD       LGT RAIN  66  64  94 SE13      29.90F
BENSON         CLOUDY    68  64  88 S12       29.88S
MADISON          N/A     70  70 100 S7        29.87F
WILLMAR        MOCLDY    68  66  94 SE10      29.91F FOG
$$
MNZ033>034-036-042>043-049>051-058-059-250600-
   Central Minnesota

CITY           SKY/WX    TMP DP  RH WIND       PRES   REMARKS
ST CLOUD       CLOUDY    66  65  96 SE10      29.94F
SAUK CENTRE    CLOUDY    65  65  97 SE9G16    29.92S
PAYNESVILLE    CLOUDY    66  66 100 SE10      29.93S FOG
AITKIN         MIX PCPN  64  61  88 SE13      29.94S
PINE RIVER     RAIN      64  64 100 SE12      29.95R
BRAINERD       RAIN      64  63  96 S14G20    29.94S FOG
STAPLES        LGT RAIN  64  63  94 SE8G18    29.90F
LONG PRAIRIE   CLOUDY    64  63  94 E12G20    29.92F
LITTLE FALLS   RAIN      63  61  94 SE15      29.93F
LITCHFIELD     CLOUDY    68  66  94 SE10      29.94S
BUFFALO        CLOUDY    67  63  86 SE7       29.97S
MAPLE LAKE     CLOUDY    67  65  93 SE6       29.97S
HUTCHINSON     CLOUDY    69  67  96 SE12      29.95S FOG
$$
MNZ037-044-045-052-053-250600-
   East Central Minnesota

CITY           SKY/WX    TMP DP  RH WIND       PRES   REMARKS
PRINCETON      CLOUDY    66  64  94 SE9       29.98R
MORA           CLOUDY    63  61  94 SE7       30.00S
CAMBRIDGE      LGT RAIN  66  61  82 SE8       29.97S
MOOSE LAKE     CLOUDY    63  59  88 S3        29.99S
HINCKLEY       CLOUDY    63  61  94 SE6       29.99F
CLOQUET        CLOUDY    61  57  88 SE6       30.00S
MCGREGOR       CLOUDY    63  61  94 SE9       29.97F
$$
MNZ071>073-080-081-089-090-097-098-250600-
   Southwest Minnesota

CITY           SKY/WX    TMP DP  RH WIND       PRES   REMARKS
MONTEVIDEO     CLOUDY    68  68 100 S8        29.90F
GRANITE FALLS  HVY RAIN  70  69  96 SE6       29.90F
CANBY          CLOUDY    67  66  96 SE5       29.89F
MARSHALL       CLOUDY    67  66  97 S5        29.90S
REDWOOD FALLS  CLOUDY    69  67  93 S9        29.90S
OLIVIA         CLOUDY    68  64  88 SE7       29.89F FOG
PIPESTONE      CLOUDY    70  68  94 SW7       29.92R FOG
WINDOM         CLOUDY    70  66  88 SE14G21   29.93F
WORTHINGTON    CLOUDY    67  66  97 S10       29.94S
JACKSON        CLOUDY    68  64  88 S13       29.95F
TRACY          CLOUDY    69  67  96 S8        29.91S
$$
MNZ065>067-074>077-082>085-091>093-250600-
   South Central Minnesota

CITY           SKY/WX    TMP DP  RH WIND       PRES   REMARKS
MANKATO        LGT RAIN  69  67  93 S12G20    29.94F
ST JAMES       CLOUDY    68  66  94 SE9       29.95F
FAIRMONT       CLOUDY    68  66  93 S13       29.96S
GLENCOE        DRIZZLE   68  68 100 SE9       29.94F
FARIBAULT      CLOUDY    70  64  83 SE16      29.98F
OWATONNA       RAIN      68  64  88 SE14G22   29.98F
WASECA         RAIN      68  64  88 SE10G17   29.98F
ALBERT LEA     RAIN      68  66  94 SE14G20   29.97F
$$
MNZ078>079-086>088-094>096-250600-
   Southeast Minnesota

CITY           SKY/WX    TMP DP  RH WIND       PRES   REMARKS
ROCHESTER      CLOUDY    67  65  93 S12       30.04R
RED WING       CLOUDY    68  64  88 SE13      30.00S
DODGE CENTER   CLOUDY    66  64  94 S15       30.02F
WINONA         CLOUDY    63  61  94 SE9       30.05S
AUSTIN         LGT RAIN  66  64  94 SE12G18   30.00F
PRESTON        MOCLDY    65  62  91 SE9       30.05S
$$
ABBREVIATIONS USED IN REMARKS
   TC - TEMPERATURES IN CELSIUS
  WCI - WIND CHILL INDEX
   HX - HEAT INDEX
  VSB - VISIBILITY
$$




USA.gov is the U.S. government's official web portal to all federal, state and local government web resources and services.